sat.trackr.live / text

‹ back to catalog

STARLINK-11527 [DTC]

NORAD 62523 · 2025-004N

PAYLOAD ACTIVE UNKNOWN

§ Identity

Operator
Country
US
Launch date
2025-01-08
Launch site
AFETR
Launch vehicle
Mass (kg)
RCS (m²)

Purposes: comms

External: N2YO · Heavens-Above · Gunter

§ Orbital elements

Epoch: 2026-09-21T11:26:47.473440Z

Period
91.67 min
Inclination
43.0004°
Eccentricity
0.0001018
Mean motion
15.70873048 rev/d
Perigee alt
355.7 km
Apogee alt
357.1 km
Semi-major
6,734.5 km
B*
1.4286e-3
RAAN
330.3301°
Arg perigee
289.0656°
Mean anomaly
71.0102°
Rev number
9,800

§ Raw data

STARLINK-11527 [DTC]1 62523U 25004N   26264.47693835  .00187313  00000+0  14286-2 0  99992 62523  43.0004 330.3301 0001018 289.0656  71.0102 15.70873048 98001

JSON: /api/v1/satellites/62523 · /tle

For live sub-satellite position, see the globe view (requires WebGL).

§ Visibility from observer

Set your observer location to see the next 7 days of passes ≥ 10°. The values pass through the URL so the page stays shareable.

No JS? Fill the form by hand. The geolocation button needs JavaScript.